Torna al catalogo

CZ-6A DEB

AttivoSSO
NORAD 56281·DEBRIS·🇨🇳 China

Lanciato Nov 11, 2022 da Taiyuan Satellite Launch Center

Loading…

Prossimi Passaggi (prossime 24 ore)

TLE

AggiornatoSource: Space-Track

Epoca: Sep 13, 2026, 23:22 UTC

1 56281U 22151ACZ 26256.97415422  .00001350  00000-0  71057-3 0  9990
2 56281  98.8339 253.8628 0058238  80.0674 280.7066 14.14837152179551

Traccia CZ-6A DEB in tempo reale con AllMySat

Download on the App Store